Weather History for CXWB - January, 2013

Change the Weather History Date:

Tuesday, January 8, 2013

  Actual Average Record
Temperature  
Mean Temperature -32 °F -  
Max Temperature -23 °F - - ()
Min Temperature -40 °F - - ()
Degree Days  
Heating Degree Days 96    
Moisture  
Dew Point -40 °F    
Average Humidity 64    
Maximum Humidity 72    
Minimum Humidity 41    
Precipitation  
Precipitation 0.00 in - - ()
Sea Level Pressure  
Sea Level Pressure 29.50 in    
Wind  
Wind Speed 4 mph ()    
Max Wind Speed 16 mph    
Max Gust Speed 20 mph    
T = Trace of Precipitation, MM = Missing Value Source: Averaged Metar Reports

Daily Weather History Graph

Daily Weather History Graph

Search for Another Location

Airport or City:

Trip Planner

Search our weather history database for the weather conditions in past years. The results will help you decide how hot, cold, wet, or windy it might be!

Date:

Astronomy

Jan. 08, 2013 Rise Set
Actual Time 9:06 AM MST 1:02 PM MST
Civil Twilight 7:41 AM MST 2:28 PM MST
Nautical Twilight 6:29 AM MST 3:40 PM MST
Astronomical Twilight 5:26 AM MST 4:43 PM MST
Moon 5:27 AM MST (1/8) 10:14 AM MST (1/8)
Length of Visible Light 6h 46m
Length of Day
3h 56m
Waning Crescent, 13% of the Moon is Illuminated
Jan 8
Waning Crescent
Jan 11
New
Jan 18
First Quarter
Jan 26
Full
Feb 3
Last Quarter

Hourly Weather History & Observations

Time (MST) Temp. Windchill Dew Point Humidity Pressure Visibility Wind Dir Wind Speed Gust Speed Precip Events Conditions
12:00 AM -24.0 °F -37.9 °F -30.5 °F 72% 29.44 in - NE 4.6 mph - N/A   Unknown
1:00 AM -24.3 °F -40.4 °F -31.2 °F 70% 29.43 in - NE 5.8 mph - N/A   Unknown
2:00 AM -24.5 °F -38.5 °F -31.2 °F 71% 29.44 in - North 4.6 mph - N/A   Unknown
3:00 AM -27.4 °F - -34.2 °F 70% 29.44 in - NE 1.2 mph - N/A   Unknown
4:00 AM -27.0 °F -38.7 °F -33.7 °F 71% 29.44 in - NW 3.5 mph - N/A   Unknown
5:00 AM -30 °F - -37 °F 54% 29.44 in - NW 3.5 mph - -  
5:00 AM -29.6 °F -41.6 °F -36.6 °F 69% 29.44 in - NW 3.5 mph - N/A   Unknown
6:00 AM -29.7 °F - -36.8 °F 69% 29.45 in - NNE 2.3 mph - N/A   Unknown
7:00 AM -32.1 °F -44.5 °F -39.5 °F 67% 29.45 in - NE 3.5 mph - N/A   Unknown
8:00 AM -31.7 °F - -38.7 °F 69% 29.46 in - North 2.3 mph - N/A   Unknown
9:00 AM -31.4 °F - -38.6 °F 68% 29.46 in - NW 2.3 mph - N/A   Unknown
10:00 AM -34.1 °F -46.8 °F -41.6 °F 66% 29.47 in - WNW 3.5 mph - N/A   Unknown
11:00 AM -34 °F - -42 °F 45% 29.48 in - NW 2.3 mph - -  
11:00 AM -34.1 °F - -42.2 °F 64% 29.48 in - NW 2.3 mph - N/A   Unknown
1:00 PM -35.9 °F - -43.6 °F 66% 29.50 in - NNW 2.3 mph - N/A   Unknown
3:00 PM -38.0 °F -54.3 °F -45.9 °F 65% 29.52 in - NW 4.6 mph - N/A   Unknown
4:00 PM -38.9 °F - -47.4 °F 63% 29.53 in - NW 2.3 mph - N/A   Unknown
5:00 PM -40 °F - -49 °F 41% 29.55 in - WNW 6.9 mph - -  
5:00 PM -40.4 °F -61.5 °F -48.6 °F 63% 29.55 in - WNW 6.9 mph - N/A   Unknown
6:00 PM -35.1 °F -58.5 °F -43.1 °F 65% 29.55 in - WNW 9.2 mph - N/A   Unknown
7:00 PM -36.4 °F -56.8 °F -44.3 °F 65% 29.56 in - NW 6.9 mph - N/A   Unknown
8:00 PM -34.1 °F -58.5 °F -41.8 °F 66% 29.57 in - NW 10.4 mph - N/A   Unknown
9:00 PM -34.2 °F -61.2 °F -42.0 °F 66% 29.57 in - NW 12.7 mph - N/A   Unknown
10:00 PM -32.3 °F -61.6 °F -39.8 °F 67% 29.59 in - WNW 16.1 mph - N/A   Unknown
11:00 PM -33 °F - -41 °F 48% 29.60 in - NW 11.5 mph - -  
11:00 PM -33.2 °F -58.7 °F -40.7 °F 67% 29.60 in - NW 11.5 mph 19.6 mph N/A   Unknown